This is the latest recevied weather packets stored in our database for station/object NN5DX-12. If no packets are shown the sender has not sent any weather packets the latest 10 day(s).
| Time | Temp. | Humidity | Pressure | Rain* | Wind** | Luminosity | Snow |
|---|---|---|---|---|---|---|---|
| 1777730716 | 7.78° C | 39% | 1029.6 hPa | 0 mm | - | - | - |
| 1777730416 | 7.78° C | 40% | 1029.5 hPa | 0 mm | - | - | - |
| 1777730116 | 7.22° C | 41% | 1029.6 hPa | 0 mm | - | - | - |
| 1777729816 | 7.22° C | 40% | 1030.1 hPa | 0 mm | - | - | - |
| 1777729516 | 7.22° C | 44% | 1030.2 hPa | 0 mm | - | - | - |
| 1777729216 | 6.67° C | 44% | 1030.3 hPa | 0 mm | - | - | - |
| 1777728916 | 5.56° C | 48% | 1029.7 hPa | 0 mm | - | - | - |
| 1777728616 | 5° C | 52% | 1029.2 hPa | 0 mm | - | - | - |
| 1777728316 | 3.89° C | 54% | 1028.6 hPa | 0 mm | - | - | - |
| 1777728016 | 3.33° C | 54% | 1028.5 hPa | 0 mm | - | - | - |
| 1777727716 | 3.33° C | 58% | 1028.6 hPa | 0 mm | - | - | - |
| 1777727416 | 2.78° C | 58% | 1028.4 hPa | 0 mm | - | - | - |
| 1777727116 | 1.67° C | 65% | 1027.9 hPa | 0 mm | - | - | - |
| 1777726816 | 0.56° C | 65% | 1027.2 hPa | 0 mm | - | - | - |
| 1777726517 | 0° C | 66% | 1026.5 hPa | 0 mm | - | - | - |
| 1777726216 | -0.56° C | 66% | 1025.9 hPa | 0 mm | - | - | - |
| 1777725916 | -1.67° C | 69% | 1025.9 hPa | 0 mm | - | - | - |
| 1777725616 | -1.67° C | 68% | 1025.8 hPa | 0 mm | - | - | - |
| 1777725316 | -1.67° C | 67% | 1025.8 hPa | 0 mm | - | - | - |
| 1777725016 | -1.67° C | 67% | 1025.8 hPa | 0 mm | - | - | - |
| 1777724716 | -1.67° C | 68% | 1025.1 hPa | 0 mm | - | - | - |
| 1777724416 | -2.22° C | 70% | 1025.6 hPa | 0 mm | - | - | - |
| 1777724116 | -2.22° C | 69% | 1025.5 hPa | 0 mm | - | - | - |
| 1777723816 | -2.22° C | 71% | 1025.6 hPa | 0 mm | - | - | - |
| 1777723516 | -2.22° C | 76% | 1025.6 hPa | 0 mm | - | - | - |
* Rain latest hour (hover to see other rain measurements)
** Current wind speed in m/s (hover to see current wind gust speed)